Погода в Лахденпохья

Россия / Республика Карелия     61°31′07″N   30°11′58″E
темп.,
°C
ветер,
м/с
пор.,
м/с
влажн.,
%
обл.,
%
осадки,
мм/ч
давл.,
гПа
погр.,
м
24 октября, вс
вс2400:000ссз478798 0.0 1013460
03:000ссз488530 0.0 1015392
06:00−1ссз49805 0.0 1017436
09:00−1сз37795 0.0 1019438
12:00+2сз45625 0.0 10211040
15:00+2зсз346191 0.0 1022987
18:000з3475100 0.0 1023292
21:00−1юз247796 0.0 1022191
25 октября, пн
пн2500:000ююз487493 0.0 1021362
03:00+1ю51199100 1.0 1019453
06:00+3ююз61497100 3.4 1014609
09:00+6ююз51297100 6.6 1012668
12:00+7зюз51395100 1.3 1010648
15:00+7зюз71590100 3.0 1010783
18:00+7зюз61386100 0.4 1010745
21:00+7зюз61287100 0.4 1010691
26 октября, вт
вт2600:00+7зюз51286100 0.1 1010679
03:00+7зюз41088100 0.1 1009559
06:00+6юз41091100 0.0 1009463
09:00+7юз41093100 0.1 1008483
12:00+7юз51091100 0.0 1008601
15:00+8юз51091100 0.1 1007551
18:00+7юз51193100 0.1 1007482
21:00+7юз51195100 0.1 1006495
27 октября, ср
ср2700:00+7юз51197100 0.1 1005443
03:00+8юз4997100 0.3 1004465
06:00+8юз4992100 1.0 1003370
09:00+7зюз41090100 1.1 1003478
12:00+8з598593 0.1 1004708
15:00+7зсз5982100 0.1 1005744
18:00+5зсз5984100 0.1 1008871
21:00+5зсз4775100 0.1 1009800
28 октября, чт
чт2800:00+5з1283100 0.0 1010114
03:00+4юв1187100 0.0 101058
06:00+5в3590100 0.2 1009266
09:00+5в5893100 1.6 1009427
12:00+5в61087100 0.6 1012557
15:00+4всв6984100 0.8 1014605
18:00+3всв697697 0.0 1017653
21:00+2в5876100 0.0 1020647